Time,TemperatureF,DewpointF,PressureIn,WindDirection,WindDirectionDegrees,WindSpeedMPH,WindSpeedGustMPH,Humidity,HourlyPrecipIn,Conditions,Clouds,dailyrainin,SoftwareType,DateUTC
2013-03-28 00:03:00,43.0,36.0,29.91,NW,317,7.0,21.0,75,0.00,,,0.00,,2013-03-28 04:03:00,
2013-03-28 00:12:00,43.0,36.0,29.91,NW,317,7.0,21.0,75,0.00,,,0.00,,2013-03-28 04:12:00,
2013-03-28 00:23:00,43.0,36.0,29.91,NW,317,7.0,21.0,75,0.00,,,0.00,,2013-03-28 04:23:00,
2013-03-28 00:32:00,42.0,36.0,29.91,WNW,301,0.0,21.0,78,0.00,,,0.00,,2013-03-28 04:32:00,
2013-03-28 00:42:00,42.0,36.0,29.91,WNW,301,0.0,21.0,78,0.00,,,0.00,,2013-03-28 04:42:00,
2013-03-28 00:53:00,42.0,36.0,29.91,WNW,301,0.0,21.0,78,0.00,,,0.00,,2013-03-28 04:53:00,
2013-03-28 01:02:00,42.0,36.0,29.91,NW,308,2.0,21.0,80,0.00,,,0.00,,2013-03-28 05:02:00,
2013-03-28 01:12:00,42.0,36.0,29.91,NW,308,2.0,21.0,80,0.00,,,0.00,,2013-03-28 05:12:00,
2013-03-28 01:22:00,42.0,36.0,29.91,NW,308,2.0,21.0,80,0.00,,,0.00,,2013-03-28 05:22:00,
2013-03-28 01:32:00,41.0,36.0,29.91,NW,321,4.0,21.0,82,0.00,,,0.00,,2013-03-28 05:32:00,
2013-03-28 01:42:00,41.0,36.0,29.91,NW,321,4.0,21.0,82,0.00,,,0.00,,2013-03-28 05:42:00,
2013-03-28 01:52:00,41.0,36.0,29.91,NW,321,4.0,21.0,82,0.00,,,0.00,,2013-03-28 05:52:00,
2013-03-28 02:02:00,40.0,36.0,29.91,NW,309,0.0,21.0,85,0.00,,,0.00,,2013-03-28 06:02:00,
2013-03-28 02:12:00,40.0,36.0,29.91,NW,309,0.0,21.0,85,0.00,,,0.00,,2013-03-28 06:12:00,
2013-03-28 02:22:00,40.0,36.0,29.91,NW,309,0.0,21.0,85,0.00,,,0.00,,2013-03-28 06:22:00,
2013-03-28 02:32:00,39.0,35.0,29.91,NW,315,2.0,21.0,87,0.00,,,0.00,,2013-03-28 06:32:00,
2013-03-28 02:42:00,39.0,35.0,29.91,NW,315,2.0,21.0,87,0.00,,,0.00,,2013-03-28 06:42:00,
2013-03-28 02:52:00,39.0,35.0,29.91,NW,315,2.0,21.0,87,0.00,,,0.00,,2013-03-28 06:52:00,
2013-03-28 03:02:00,39.0,35.0,29.91,NW,315,2.0,21.0,87,0.00,,,0.00,,2013-03-28 07:02:00,
2013-03-28 03:12:00,39.0,35.0,29.91,NW,315,2.0,21.0,87,0.00,,,0.00,,2013-03-28 07:12:00,
2013-03-28 03:32:00,37.0,34.0,29.92,NNW,334,0.0,21.0,90,0.00,,,0.00,,2013-03-28 07:32:00,
2013-03-28 03:42:00,37.0,34.0,29.92,NNW,334,0.0,21.0,90,0.00,,,0.00,,2013-03-28 07:42:00,
2013-03-28 03:52:00,37.0,34.0,29.92,NNW,334,0.0,21.0,90,0.00,,,0.00,,2013-03-28 07:52:00,
2013-03-28 04:02:00,37.0,35.0,29.92,WNW,291,1.0,21.0,92,0.00,,,0.00,,2013-03-28 08:02:00,
2013-03-28 04:12:00,37.0,35.0,29.92,WNW,291,1.0,21.0,92,0.00,,,0.00,,2013-03-28 08:12:00,
2013-03-28 04:22:00,37.0,35.0,29.92,WNW,291,1.0,21.0,92,0.00,,,0.00,,2013-03-28 08:22:00,
2013-03-28 04:33:00,37.0,35.0,29.92,NW,321,1.0,21.0,93,0.00,,,0.00,,2013-03-28 08:33:00,
2013-03-28 04:42:00,37.0,35.0,29.92,NW,321,1.0,21.0,93,0.00,,,0.00,,2013-03-28 08:42:00,
2013-03-28 04:52:00,37.0,35.0,29.92,NW,321,1.0,21.0,93,0.00,,,0.00,,2013-03-28 08:52:00,
2013-03-28 05:02:00,36.0,34.0,29.92,NNW,334,1.0,21.0,94,0.00,,,0.00,,2013-03-28 09:02:00,
2013-03-28 05:12:00,36.0,34.0,29.92,NNW,334,1.0,21.0,94,0.00,,,0.00,,2013-03-28 09:12:00,
2013-03-28 05:22:00,36.0,34.0,29.92,NNW,334,1.0,21.0,94,0.00,,,0.00,,2013-03-28 09:22:00,
2013-03-28 05:32:00,36.0,34.0,29.92,North,352,0.0,21.0,94,0.00,,,0.00,,2013-03-28 09:32:00,
2013-03-28 05:42:00,36.0,34.0,29.92,North,352,0.0,21.0,94,0.00,,,0.00,,2013-03-28 09:42:00,
2013-03-28 05:52:00,36.0,34.0,29.92,North,352,0.0,21.0,94,0.00,,,0.00,,2013-03-28 09:52:00,
2013-03-28 06:03:00,36.0,35.0,29.93,WNW,299,0.0,21.0,95,0.00,,,0.00,,2013-03-28 10:03:00,
2013-03-28 06:12:00,36.0,35.0,29.93,WNW,299,0.0,21.0,95,0.00,,,0.00,,2013-03-28 10:12:00,
2013-03-28 06:22:00,36.0,35.0,29.93,WNW,299,0.0,21.0,95,0.00,,,0.00,,2013-03-28 10:22:00,
2013-03-28 06:33:00,36.0,35.0,29.93,WNW,303,2.0,21.0,95,0.00,,,0.00,,2013-03-28 10:33:00,
2013-03-28 06:42:00,36.0,35.0,29.93,WNW,303,2.0,21.0,95,0.00,,,0.00,,2013-03-28 10:42:00,
2013-03-28 06:53:00,36.0,35.0,29.93,WNW,303,2.0,21.0,95,0.00,,,0.00,,2013-03-28 10:53:00,
2013-03-28 07:03:00,37.0,36.0,29.95,NW,323,4.0,21.0,96,0.00,,,0.00,,2013-03-28 11:03:00,
2013-03-28 07:12:00,37.0,36.0,29.95,NW,323,4.0,21.0,96,0.00,,,0.00,,2013-03-28 11:12:00,
2013-03-28 07:23:00,37.0,36.0,29.95,NW,323,4.0,21.0,96,0.00,,,0.00,,2013-03-28 11:23:00,
2013-03-28 07:32:00,37.0,36.0,29.95,NW,323,0.0,21.0,97,0.00,,,0.00,,2013-03-28 11:32:00,
2013-03-28 07:42:00,37.0,36.0,29.95,NW,323,0.0,21.0,97,0.00,,,0.00,,2013-03-28 11:42:00,
2013-03-28 07:52:00,37.0,36.0,29.95,NW,323,0.0,21.0,97,0.00,,,0.00,,2013-03-28 11:52:00,
2013-03-28 08:02:00,38.0,37.0,29.96,NW,319,5.0,21.0,98,0.00,,,0.00,,2013-03-28 12:02:00,
2013-03-28 08:12:00,38.0,37.0,29.96,NW,319,5.0,21.0,98,0.00,,,0.00,,2013-03-28 12:12:00,
2013-03-28 08:22:00,38.0,37.0,29.96,NW,319,5.0,21.0,98,0.00,,,0.00,,2013-03-28 12:22:00,
2013-03-28 08:32:00,38.0,37.0,29.97,NNW,333,4.0,21.0,98,0.00,,,0.00,,2013-03-28 12:32:00,
2013-03-28 08:42:00,38.0,37.0,29.97,NNW,333,4.0,21.0,98,0.00,,,0.00,,2013-03-28 12:42:00,
2013-03-28 08:52:00,38.0,37.0,29.97,NNW,333,4.0,21.0,98,0.00,,,0.00,,2013-03-28 12:52:00,
2013-03-28 09:02:00,40.0,39.0,29.97,NE,51,0.0,21.0,97,0.00,,,0.00,,2013-03-28 13:02:00,
2013-03-28 09:12:00,40.0,39.0,29.97,NE,51,0.0,21.0,97,0.00,,,0.00,,2013-03-28 13:12:00,
2013-03-28 09:22:00,40.0,39.0,29.97,NE,51,0.0,21.0,97,0.00,,,0.00,,2013-03-28 13:22:00,
2013-03-28 09:32:00,41.0,40.0,29.97,North,351,7.0,21.0,96,0.00,,,0.00,,2013-03-28 13:32:00,
2013-03-28 09:42:00,41.0,40.0,29.97,North,351,7.0,21.0,96,0.00,,,0.00,,2013-03-28 13:42:00,
2013-03-28 09:52:00,41.0,40.0,29.97,North,351,7.0,21.0,96,0.00,,,0.00,,2013-03-28 13:52:00,
2013-03-28 10:02:00,41.0,40.0,29.97,North,351,7.0,21.0,96,0.00,,,0.00,,2013-03-28 14:02:00,
2013-03-28 10:12:00,41.0,40.0,29.97,North,351,7.0,21.0,96,0.00,,,0.00,,2013-03-28 14:12:00,
2013-03-28 10:33:00,43.0,41.0,29.98,NW,314,2.0,21.0,92,0.00,,,0.00,,2013-03-28 14:33:00,
2013-03-28 10:42:00,43.0,41.0,29.98,NW,314,2.0,21.0,92,0.00,,,0.00,,2013-03-28 14:42:00,
2013-03-28 10:52:00,43.0,41.0,29.98,NW,314,2.0,21.0,92,0.00,,,0.00,,2013-03-28 14:52:00,
2013-03-28 11:02:00,43.0,40.0,29.98,NE,44,5.0,21.0,89,0.00,,,0.00,,2013-03-28 15:02:00,
2013-03-28 11:12:00,43.0,40.0,29.98,NE,44,5.0,21.0,89,0.00,,,0.00,,2013-03-28 15:12:00,
2013-03-28 11:22:00,43.0,40.0,29.98,NE,44,5.0,21.0,89,0.00,,,0.00,,2013-03-28 15:22:00,
2013-03-28 11:33:00,44.0,40.0,29.99,NE,50,5.0,21.0,86,0.00,,,0.00,,2013-03-28 15:33:00,
2013-03-28 11:43:00,44.0,40.0,29.99,NE,50,5.0,21.0,86,0.00,,,0.00,,2013-03-28 15:43:00,
2013-03-28 11:53:00,44.0,40.0,29.99,NE,50,5.0,21.0,86,0.00,,,0.00,,2013-03-28 15:53:00,
2013-03-28 12:03:00,46.0,41.0,29.98,NNW,333,2.0,21.0,81,0.00,,,0.00,,2013-03-28 16:03:00,
2013-03-28 12:12:00,46.0,41.0,29.98,NNW,333,2.0,21.0,81,0.00,,,0.00,,2013-03-28 16:12:00,
2013-03-28 12:23:00,46.0,41.0,29.98,NNW,333,2.0,21.0,81,0.00,,,0.00,,2013-03-28 16:23:00,
2013-03-28 12:32:00,47.0,40.0,29.99,NE,40,7.0,21.0,76,0.00,,,0.00,,2013-03-28 16:32:00,
2013-03-28 12:42:00,47.0,40.0,29.99,NE,40,7.0,21.0,76,0.00,,,0.00,,2013-03-28 16:42:00,
2013-03-28 12:52:00,47.0,40.0,29.99,NE,40,7.0,21.0,76,0.00,,,0.00,,2013-03-28 16:52:00,
2013-03-28 13:02:00,47.0,39.0,29.99,NE,52,4.0,21.0,73,0.00,,,0.00,,2013-03-28 17:02:00,
2013-03-28 13:12:00,47.0,39.0,29.99,NE,52,4.0,21.0,73,0.00,,,0.00,,2013-03-28 17:12:00,
2013-03-28 13:22:00,47.0,39.0,29.99,NE,52,4.0,21.0,73,0.00,,,0.00,,2013-03-28 17:22:00,
2013-03-28 13:32:00,48.0,38.0,29.99,NE,52,0.0,21.0,69,0.00,,,0.00,,2013-03-28 17:32:00,
2013-03-28 13:42:00,48.0,38.0,29.99,NE,52,0.0,21.0,69,0.00,,,0.00,,2013-03-28 17:42:00,
2013-03-28 13:52:00,48.0,38.0,29.99,NE,52,0.0,21.0,69,0.00,,,0.00,,2013-03-28 17:52:00,
2013-03-28 14:02:00,47.0,38.0,29.98,NNE,13,3.0,21.0,70,0.00,,,0.00,,2013-03-28 18:02:00,
2013-03-28 14:12:00,47.0,38.0,29.98,NNE,13,3.0,21.0,70,0.00,,,0.00,,2013-03-28 18:12:00,
2013-03-28 14:22:00,47.0,38.0,29.98,NNE,13,3.0,21.0,70,0.00,,,0.00,,2013-03-28 18:22:00,
2013-03-28 14:32:00,50.0,38.0,29.98,North,357,2.0,21.0,63,0.00,,,0.00,,2013-03-28 18:32:00,
2013-03-28 14:42:00,50.0,38.0,29.98,North,357,2.0,21.0,63,0.00,,,0.00,,2013-03-28 18:42:00,
2013-03-28 14:52:00,50.0,38.0,29.98,North,357,2.0,21.0,63,0.00,,,0.00,,2013-03-28 18:52:00,
2013-03-28 15:02:00,46.0,39.0,29.98,South,172,2.0,21.0,76,0.00,,,0.00,,2013-03-28 19:02:00,
2013-03-28 15:12:00,46.0,39.0,29.98,South,172,2.0,21.0,76,0.00,,,0.00,,2013-03-28 19:12:00,
2013-03-28 15:23:00,46.0,39.0,29.98,South,172,2.0,21.0,76,0.00,,,0.00,,2013-03-28 19:23:00,
2013-03-28 15:33:00,44.0,39.0,29.99,SW,217,0.0,21.0,84,0.00,,,0.00,,2013-03-28 19:33:00,
2013-03-28 15:42:00,44.0,39.0,29.99,SW,217,0.0,21.0,84,0.00,,,0.00,,2013-03-28 19:42:00,
2013-03-28 15:52:00,44.0,39.0,29.99,SW,217,0.0,21.0,84,0.00,,,0.00,,2013-03-28 19:52:00,
2013-03-28 16:03:00,43.0,39.0,29.99,West,266,1.0,21.0,87,0.00,,,0.00,,2013-03-28 20:03:00,
2013-03-28 16:12:00,43.0,39.0,29.99,West,266,1.0,21.0,87,0.00,,,0.00,,2013-03-28 20:12:00,
2013-03-28 16:22:00,43.0,39.0,29.99,West,266,1.0,21.0,87,0.00,,,0.00,,2013-03-28 20:22:00,
2013-03-28 16:32:00,44.0,39.0,29.99,SSW,213,0.0,21.0,83,0.00,,,0.00,,2013-03-28 20:32:00,
2013-03-28 16:42:00,44.0,39.0,29.99,SSW,213,0.0,21.0,83,0.00,,,0.00,,2013-03-28 20:42:00,
2013-03-28 16:53:00,44.0,39.0,29.99,SSW,213,0.0,21.0,83,0.00,,,0.00,,2013-03-28 20:53:00,
2013-03-28 17:02:00,44.0,39.0,30.00,SW,232,1.0,21.0,84,0.00,,,0.00,,2013-03-28 21:02:00,
2013-03-28 17:12:00,44.0,39.0,30.00,SW,232,1.0,21.0,84,0.00,,,0.00,,2013-03-28 21:12:00,
2013-03-28 17:22:00,44.0,39.0,30.00,SW,232,1.0,21.0,84,0.00,,,0.00,,2013-03-28 21:22:00,
2013-03-28 17:33:00,44.0,41.0,30.00,WSW,247,0.0,21.0,89,0.00,,,0.00,,2013-03-28 21:33:00,
2013-03-28 17:43:00,44.0,41.0,30.00,WSW,247,0.0,21.0,89,0.00,,,0.00,,2013-03-28 21:43:00,
2013-03-28 17:53:00,44.0,41.0,30.00,WSW,247,0.0,21.0,89,0.00,,,0.00,,2013-03-28 21:53:00,
2013-03-28 18:03:00,43.0,41.0,30.01,WSW,247,0.0,21.0,92,0.00,,,0.00,,2013-03-28 22:03:00,
2013-03-28 18:12:00,43.0,41.0,30.01,WSW,247,0.0,21.0,92,0.00,,,0.00,,2013-03-28 22:12:00,
2013-03-28 18:23:00,43.0,41.0,30.01,WSW,247,0.0,21.0,92,0.00,,,0.00,,2013-03-28 22:23:00,
2013-03-28 18:32:00,43.0,41.0,30.01,WSW,247,0.0,21.0,92,0.00,,,0.00,,2013-03-28 22:32:00,
2013-03-28 18:42:00,43.0,41.0,30.01,WSW,247,0.0,21.0,92,0.00,,,0.00,,2013-03-28 22:42:00,
2013-03-28 19:03:00,43.0,41.0,30.03,SW,234,0.0,21.0,93,0.00,,,0.00,,2013-03-28 23:03:00,
2013-03-28 19:12:00,43.0,41.0,30.03,SW,234,0.0,21.0,93,0.00,,,0.00,,2013-03-28 23:12:00,
2013-03-28 19:22:00,43.0,41.0,30.03,SW,234,0.0,21.0,93,0.00,,,0.00,,2013-03-28 23:22:00,
2013-03-28 19:32:00,43.0,42.0,30.03,SW,234,0.0,21.0,95,0.00,,,0.00,,2013-03-28 23:32:00,
2013-03-28 19:42:00,43.0,42.0,30.03,SW,234,0.0,21.0,95,0.00,,,0.00,,2013-03-28 23:42:00,
2013-03-28 19:53:00,43.0,42.0,30.03,SW,234,0.0,21.0,95,0.00,,,0.00,,2013-03-28 23:53:00,
2013-03-28 20:02:00,42.0,41.0,30.05,SW,234,0.0,21.0,98,0.00,,,0.00,,2013-03-29 00:02:00,
2013-03-28 20:12:00,42.0,41.0,30.05,SW,234,0.0,21.0,98,0.00,,,0.00,,2013-03-29 00:12:00,
2013-03-28 20:22:00,42.0,41.0,30.05,SW,234,0.0,21.0,98,0.00,,,0.00,,2013-03-29 00:22:00,
2013-03-28 20:32:00,41.0,41.0,30.06,SW,234,0.0,21.0,99,0.00,,,0.00,,2013-03-29 00:32:00,
2013-03-28 20:42:00,41.0,41.0,30.06,SW,234,0.0,21.0,99,0.00,,,0.00,,2013-03-29 00:42:00,
2013-03-28 20:52:00,41.0,41.0,30.06,SW,234,0.0,21.0,99,0.00,,,0.00,,2013-03-29 00:52:00,
2013-03-28 21:02:00,41.0,41.0,30.07,NNE,31,0.0,21.0,99,0.00,,,0.00,,2013-03-29 01:02:00,
2013-03-28 21:12:00,41.0,41.0,30.07,NNE,31,0.0,21.0,99,0.00,,,0.00,,2013-03-29 01:12:00,
2013-03-28 21:22:00,41.0,41.0,30.07,NNE,31,0.0,21.0,99,0.00,,,0.00,,2013-03-29 01:22:00,
2013-03-28 21:33:00,41.0,41.0,30.08,North,3,0.0,21.0,99,0.00,,,0.00,,2013-03-29 01:33:00,
2013-03-28 21:42:00,41.0,41.0,30.08,North,3,0.0,21.0,99,0.00,,,0.00,,2013-03-29 01:42:00,
2013-03-28 21:52:00,41.0,41.0,30.08,North,3,0.0,21.0,99,0.00,,,0.00,,2013-03-29 01:52:00,
2013-03-28 22:02:00,41.0,41.0,30.08,NW,311,0.0,21.0,99,0.00,,,0.00,,2013-03-29 02:02:00,
2013-03-28 22:12:00,41.0,41.0,30.08,NW,311,0.0,21.0,99,0.00,,,0.00,,2013-03-29 02:12:00,
2013-03-28 22:22:00,41.0,41.0,30.08,NW,311,0.0,21.0,99,0.00,,,0.00,,2013-03-29 02:22:00,
2013-03-28 22:32:00,42.0,41.0,30.08,NW,326,0.0,21.0,97,0.00,,,0.00,,2013-03-29 02:32:00,
2013-03-28 22:42:00,42.0,41.0,30.08,NW,326,0.0,21.0,97,0.00,,,0.00,,2013-03-29 02:42:00,
2013-03-28 22:53:00,42.0,41.0,30.08,NW,326,0.0,21.0,97,0.00,,,0.00,,2013-03-29 02:53:00,
2013-03-28 23:02:00,42.0,41.0,30.08,NNW,340,0.0,21.0,96,0.00,,,0.00,,2013-03-29 03:02:00,
2013-03-28 23:12:00,42.0,41.0,30.08,NNW,340,0.0,21.0,96,0.00,,,0.00,,2013-03-29 03:12:00,
2013-03-28 23:22:00,42.0,41.0,30.08,NNW,340,0.0,21.0,96,0.00,,,0.00,,2013-03-29 03:22:00,
2013-03-28 23:32:00,41.0,40.0,30.08,NNW,330,2.0,21.0,98,0.00,,,0.00,,2013-03-29 03:32:00,
2013-03-28 23:42:00,41.0,40.0,30.08,NNW,330,2.0,21.0,98,0.00,,,0.00,,2013-03-29 03:42:00,
2013-03-28 23:53:00,41.0,40.0,30.08,NNW,330,2.0,21.0,98,0.00,,,0.00,,2013-03-29 03:53:00,